{"data":{"norad_id":62326,"intl_designator":"2024-240D","name":"HULIANWANG DIGUI-04","alt_names":[],"object_type":"PAYLOAD","status":"ACTIVE","operator":null,"country":"PRC","launch_date":"2024-12-16","launch_site_code":"WSC","launch_vehicle":null,"mission":null,"orbit_class":"UNKNOWN","rcs_meters":null,"size_class":null,"mass_kg":null,"dimensions":null,"purposes":[],"wikipedia_slug":null,"has_3d_model":false,"image_url":null,"decayed_at":null,"tle_current":{"epoch":"2026-09-22T21:26:55.029408Z","epoch_age_seconds":105221,"freshness":"FRESH","line1":"1 62326U 24240D   26265.89369247  .00000021  00000+0  15420-4 0  9998","line2":"2 62326  86.4971 310.2254 0001497  91.1654 268.9652 13.24413217 85571","mean_motion":13.24413217,"eccentricity":0.0001497,"inclination_deg":86.4971,"raan_deg":310.2254,"arg_perigee_deg":91.1654,"mean_anomaly_deg":268.9652,"bstar":1.542e-5,"rev_number":8557,"period_min":108.72739576413,"perigee_km":1166.7803228047,"apogee_km":1169.0396092663,"semimajor_km":7546.0469660355,"source":"CELESTRAK","updated_at":"2026-09-23T09:00:21.354331Z"}}}